| time (UTC) | temp F | wind direction | speed knots | gust knots | rain 1hr in | rain 24hr in | rain mn in | humidity % | barometer mb |
| 20260507095511 | 54 | 105 | 0.9 | 3.5 | 0.00 | 0.00 | 0.00 | 74 | 1022.4 |
| 20260507095009 | 54 | 89 | 0.9 | 4.3 | 0.00 | 0.00 | 0.00 | 73 | 1022.4 |
| 20260507094528 | 54 | 102 | 0.9 | 4.3 | 0.00 | 0.00 | 0.00 | 73 | 1022.4 |
| 20260507094008 | 54 | 86 | 1.7 | 4.3 | 0.00 | 0.00 | 0.00 | 73 | 1022.3 |
| 20260507093507 | 54 | 87 | 0.9 | 5.2 | 0.00 | 0.00 | 0.00 | 72 | 1022.4 |
| 20260507093027 | 54 | 101 | 1.7 | 5.2 | 0.00 | 0.00 | 0.00 | 72 | 1022.4 |
| 20260507092512 | 54 | 96 | 0.0 | 1.7 | 0.00 | 0.00 | 0.00 | 73 | 1022.5 |
| 20260507092008 | 54 | 70 | 0.0 | 2.6 | 0.00 | 0.00 | 0.00 | 72 | 1022.5 |
| 20260507091529 | 54 | 44 | 0.9 | 5.2 | 0.00 | 0.00 | 0.00 | 72 | 1022.5 |
| 20260507091010 | 54 | 72 | 1.7 | 5.2 | 0.00 | 0.00 | 0.00 | 72 | 1022.5 |
| 20260507090512 | 54 | 46 | 1.7 | 4.3 | 0.00 | 0.00 | 0.00 | 72 | 1022.6 |
| 20260507090024 | 54 | 69 | 2.6 | 4.3 | 0.00 | 0.00 | 0.00 | 72 | 1022.6 |
| 20260507085504 | 55 | 46 | 0.9 | 4.3 | 0.00 | 0.00 | 0.00 | 72 | 1022.5 |
| 20260507085005 | 54 | 57 | 0.9 | 3.5 | 0.00 | 0.00 | 0.00 | 72 | 1022.6 |
| 20260507084518 | 54 | 75 | 1.7 | 3.5 | 0.00 | 0.00 | 0.00 | 72 | 1022.6 |
| 20260507084004 | 55 | 23 | 0.9 | 6.1 | 0.00 | 0.00 | 0.00 | 73 | 1022.5 |
| 20260507083506 | 54 | 44 | 0.0 | 6.1 | 0.00 | 0.00 | 0.00 | 73 | 1022.5 |
| 20260507083012 | 55 | 57 | 0.9 | 3.5 | 0.00 | 0.00 | 0.00 | 73 | 1022.6 |
| 20260507082504 | 55 | 99 | 0.9 | 2.6 | 0.00 | 0.00 | 0.00 | 73 | 1022.6 |
| 20260507082004 | 55 | 77 | 1.7 | 3.5 | 0.00 | 0.00 | 0.00 | 73 | 1022.6 |
| 20260507081504 | 55 | 64 | 0.9 | 4.3 | 0.00 | 0.00 | 0.00 | 73 | 1022.6 |
| 20260507081007 | 55 | 6 | 1.7 | 4.3 | 0.00 | 0.00 | 0.00 | 74 | 1022.6 |
| 20260507080505 | 55 | 75 | 1.7 | 4.3 | 0.00 | 0.00 | 0.00 | 74 | 1022.5 |
| 20260507080007 | 55 | 4 | 1.7 | 5.2 | 0.00 | 0.00 | 0.00 | 74 | 1022.5 |
| 20260507075505 | 55 | 70 | 2.6 | 5.2 | 0.00 | 0.00 | 0.00 | 74 | 1022.6 |
| 20260507075008 | 55 | 70 | 2.6 | 4.3 | 0.00 | 0.00 | 0.00 | 74 | 1022.6 |
| 20260507074506 | 55 | 44 | 1.7 | 3.5 | 0.00 | 0.00 | 0.00 | 74 | 1022.6 |
| 20260507074005 | 55 | 65 | 1.7 | 3.5 | 0.00 | 0.00 | 0.00 | 74 | 1022.6 |
| 20260507073505 | 55 | 55 | 0.9 | 3.5 | 0.00 | 0.00 | 0.00 | 74 | 1022.6 |
| 20260507073010 | 55 | 44 | 1.7 | 3.5 | 0.00 | 0.00 | 0.00 | 74 | 1022.6 |
| 20260507072504 | 55 | 75 | 0.0 | 4.3 | 0.00 | 0.00 | 0.00 | 74 | 1022.5 |
| 20260507072007 | 55 | 48 | 0.9 | 5.2 | 0.00 | 0.00 | 0.00 | 74 | 1022.5 |
| 20260507071516 | 55 | 39 | 2.6 | 5.2 | 0.00 | 0.00 | 0.00 | 74 | 1022.4 |
| 20260507071004 | 55 | 32 | 0.9 | 3.5 | 0.00 | 0.00 | 0.00 | 74 | 1022.4 |
| 20260507070504 | 55 | 73 | 1.7 | 4.3 | 0.00 | 0.00 | 0.00 | 74 | 1022.4 |
| 20260507070016 | 55 | 115 | 0.9 | 4.3 | 0.00 | 0.00 | 0.00 | 74 | 1022.4 |
| 20260507065503 | 55 | 52 | 0.9 | 3.5 | 0.00 | 0.00 | 0.00 | 75 | 1022.4 |
| 20260507065003 | 55 | 49 | 1.7 | 4.3 | 0.00 | 0.00 | 0.00 | 75 | 1022.4 |
| 20260507064507 | 55 | 66 | 1.7 | 5.2 | 0.00 | 0.00 | 0.00 | 75 | 1022.5 |
| 20260507064003 | 55 | 47 | 1.7 | 5.2 | 0.00 | 0.00 | 0.00 | 75 | 1022.5 |
| 20260507063503 | 55 | 126 | 1.7 | 6.1 | 0.00 | 0.00 | 0.00 | 75 | 1022.5 |
| 20260507063016 | 55 | 56 | 2.6 | 7.8 | 0.00 | 0.00 | 0.00 | 74 | 1022.5 |
| 20260507062507 | 55 | 50 | 2.6 | 7.8 | 0.00 | 0.00 | 0.00 | 74 | 1022.5 |
| 20260507062007 | 55 | 68 | 1.7 | 6.1 | 0.00 | 0.00 | 0.00 | 74 | 1022.6 |
| 20260507061514 | 55 | 45 | 2.6 | 6.1 | 0.00 | 0.00 | 0.00 | 74 | 1022.6 |
| 20260507061012 | 55 | 106 | 2.6 | 5.2 | 0.00 | 0.00 | 0.00 | 74 | 1022.6 |
| 20260507060506 | 55 | 77 | 0.0 | 5.2 | 0.00 | 0.00 | 0.00 | 74 | 1022.6 |
| 20260507060013 | 56 | 86 | 2.6 | 5.2 | 0.00 | 0.00 | 0.00 | 74 | 1022.5 |
| 20260507055508 | 56 | 52 | 1.7 | 7.0 | 0.00 | 0.00 | 0.00 | 74 | 1022.5 |
| 20260507055004 | 56 | 48 | 1.7 | 7.0 | 0.00 | 0.00 | 0.00 | 74 | 1022.5 |
| 20260507054504 | 56 | 99 | 2.6 | 7.0 | 0.00 | 0.00 | 0.00 | 74 | 1022.5 |
| 20260507054004 | 56 | 82 | 1.7 | 8.7 | 0.00 | 0.00 | 0.00 | 74 | 1022.5 |
| 20260507053504 | 56 | 46 | 1.7 | 8.7 | 0.00 | 0.00 | 0.00 | 74 | 1022.5 |
| 20260507053010 | 56 | 93 | 2.6 | 7.0 | 0.00 | 0.00 | 0.00 | 74 | 1022.5 |
| 20260507052504 | 56 | 66 | 3.5 | 11.3 | 0.00 | 0.00 | 0.00 | 74 | 1022.4 |
| 20260507052007 | 56 | 106 | 3.5 | 11.3 | 0.00 | 0.00 | 0.00 | 73 | 1022.4 |
| 20260507051514 | 56 | 86 | 1.7 | 9.6 | 0.00 | 0.00 | 0.00 | 73 | 1022.4 |
| 20260507051011 | 56 | 106 | 3.5 | 9.6 | 0.00 | 0.00 | 0.00 | 73 | 1022.4 |
| 20260507050511 | 57 | 81 | 2.6 | 10.4 | 0.00 | 0.00 | 0.00 | 73 | 1022.5 |
| 20260507050035 | 57 | 98 | 2.6 | 10.4 | 0.00 | 0.00 | 0.00 | 73 | 1022.4 |
| 20260507045508 | 57 | 110 | 4.3 | 9.6 | 0.00 | 0.00 | 0.00 | 72 | 1022.4 |
| 20260507045007 | 57 | 99 | 2.6 | 10.4 | 0.00 | 0.00 | 0.00 | 72 | 1022.4 |
| 20260507044522 | 57 | 179 | 3.5 | 10.4 | 0.00 | 0.00 | 0.00 | 72 | 1022.5 |
| 20260507044006 | 57 | 74 | 3.5 | 7.8 | 0.00 | 0.00 | 0.00 | 72 | 1022.5 |
| 20260507043506 | 57 | 77 | 1.7 | 9.6 | 0.00 | 0.00 | 0.00 | 72 | 1022.3 |
| 20260507043006 | 57 | 89 | 3.5 | 11.3 | 0.00 | 0.00 | 0.00 | 72 | 1022.3 |
| 20260507042503 | 57 | 65 | 4.3 | 11.3 | 0.00 | 0.00 | 0.00 | 71 | 1022.2 |
| 20260507042003 | 58 | 73 | 2.6 | 6.1 | 0.00 | 0.00 | 0.00 | 71 | 1022.2 |
| 20260507041512 | 58 | 94 | 1.7 | 6.1 | 0.00 | 0.00 | 0.00 | 71 | 1022.2 |
| 20260507041007 | 58 | 73 | 1.7 | 7.0 | 0.00 | 0.00 | 0.00 | 71 | 1022.2 |
| 20260507040507 | 58 | 103 | 2.6 | 8.7 | 0.00 | 0.00 | 0.00 | 71 | 1022.2 |
| 20260507040018 | 58 | 93 | 3.5 | 9.6 | 0.00 | 0.00 | 0.00 | 71 | 1022.1 |
| 20260507035508 | 58 | 82 | 3.5 | 9.6 | 0.00 | 0.00 | 0.00 | 71 | 1021.9 |
| 20260507035008 | 59 | 82 | 1.7 | 9.6 | 0.00 | 0.00 | 0.00 | 71 | 1021.9 |
| 20260507034519 | 59 | 84 | 3.5 | 7.8 | 0.00 | 0.00 | 0.00 | 71 | 1021.8 |
| 20260507034013 | 59 | 47 | 2.6 | 7.8 | 0.00 | 0.00 | 0.00 | 71 | 1021.7 |
| 20260507033507 | 59 | 72 | 3.5 | 10.4 | 0.00 | 0.00 | 0.00 | 71 | 1021.7 |
| 20260507033028 | 59 | 20 | 5.2 | 10.4 | 0.00 | 0.00 | 0.00 | 70 | 1021.6 |
| 20260507032507 | 59 | 59 | 2.6 | 7.8 | 0.00 | 0.00 | 0.00 | 71 | 1021.5 |
| 20260507032010 | 60 | 103 | 3.5 | 7.8 | 0.00 | 0.00 | 0.00 | 70 | 1021.4 |
| 20260507031528 | 60 | 120 | 2.6 | 6.1 | 0.00 | 0.00 | 0.00 | 70 | 1021.4 |
| 20260507031004 | 60 | 67 | 2.6 | 6.1 | 0.00 | 0.00 | 0.00 | 70 | 1021.3 |
| 20260507030507 | 60 | 118 | 2.6 | 7.0 | 0.00 | 0.00 | 0.00 | 70 | 1021.3 |
| 20260507030014 | 60 | 96 | 2.6 | 7.0 | 0.00 | 0.00 | 0.00 | 70 | 1021.2 |
| 20260507025508 | 60 | 101 | 4.3 | 8.7 | 0.00 | 0.00 | 0.00 | 70 | 1021.1 |
| 20260507025012 | 61 | 96 | 3.5 | 8.7 | 0.00 | 0.00 | 0.00 | 69 | 1021.1 |
| 20260507024518 | 61 | 44 | 1.7 | 6.1 | 0.00 | 0.00 | 0.00 | 69 | 1021.0 |
| 20260507024007 | 61 | 106 | 0.9 | 7.8 | 0.00 | 0.00 | 0.00 | 69 | 1020.9 |
| 20260507023509 | 61 | 91 | 2.6 | 7.8 | 0.00 | 0.00 | 0.00 | 69 | 1021.0 |
| 20260507023020 | 62 | 72 | 2.6 | 7.0 | 0.00 | 0.00 | 0.00 | 69 | 1020.9 |
| 20260507022510 | 62 | 45 | 1.7 | 7.0 | 0.00 | 0.00 | 0.00 | 69 | 1020.9 |
| 20260507022010 | 62 | 94 | 3.5 | 8.7 | 0.00 | 0.00 | 0.00 | 68 | 1020.9 |
| 20260507021533 | 62 | 56 | 3.5 | 8.7 | 0.00 | 0.00 | 0.00 | 68 | 1020.9 |
| 20260507021007 | 63 | 76 | 3.5 | 10.4 | 0.00 | 0.00 | 0.00 | 67 | 1020.9 |
| 20260507020509 | 63 | 22 | 4.3 | 10.4 | 0.00 | 0.00 | 0.00 | 66 | 1020.9 |
| 20260507020026 | 63 | 99 | 2.6 | 8.7 | 0.00 | 0.00 | 0.00 | 66 | 1020.9 |
| 20260507015507 | 64 | 75 | 2.6 | 8.7 | 0.00 | 0.00 | 0.00 | 66 | 1020.9 |
| 20260507015005 | 64 | 32 | 3.5 | 8.7 | 0.00 | 0.00 | 0.00 | 66 | 1020.9 |
| 20260507014520 | 64 | 72 | 4.3 | 8.7 | 0.00 | 0.00 | 0.00 | 66 | 1021.0 |
| 20260507014013 | 64 | 61 | 3.5 | 9.6 | 0.00 | 0.00 | 0.00 | 66 | 1021.0 |
| 20260507013505 | 64 | 48 | 5.2 | 9.6 | 0.00 | 0.00 | 0.00 | 65 | 1021.0 |
| 20260507013019 | 65 | 77 | 2.6 | 7.8 | 0.00 | 0.00 | 0.00 | 65 | 1020.9 |
| 20260507012509 | 65 | 58 | 3.5 | 7.8 | 0.00 | 0.00 | 0.00 | 66 | 1020.8 |
| 20260507012010 | 65 | 42 | 3.5 | 9.6 | 0.00 | 0.00 | 0.00 | 65 | 1020.9 |
| 20260507011530 | 65 | 75 | 5.2 | 9.6 | 0.00 | 0.00 | 0.00 | 65 | 1020.9 |
| 20260507011007 | 65 | 80 | 4.3 | 8.7 | 0.00 | 0.00 | 0.00 | 64 | 1020.9 |
| 20260507010513 | 66 | 106 | 4.3 | 9.6 | 0.00 | 0.00 | 0.00 | 64 | 1020.9 |
| 20260507010037 | 66 | 76 | 4.3 | 9.6 | 0.00 | 0.00 | 0.00 | 64 | 1020.9 |
| 20260507005507 | 66 | 75 | 3.5 | 8.7 | 0.00 | 0.00 | 0.00 | 64 | 1020.8 |
| 20260507005019 | 66 | 54 | 5.2 | 8.7 | 0.00 | 0.00 | 0.00 | 63 | 1020.8 |
| 20260507004524 | 67 | 53 | 3.5 | 10.4 | 0.00 | 0.00 | 0.00 | 64 | 1020.8 |
| 20260507004011 | 67 | 97 | 3.5 | 10.4 | 0.00 | 0.00 | 0.00 | 64 | 1020.7 |
| 20260507003511 | 68 | 56 | 3.5 | 7.8 | 0.00 | 0.00 | 0.00 | 63 | 1020.7 |
| 20260507003025 | 68 | 51 | 3.5 | 8.7 | 0.00 | 0.00 | 0.00 | 64 | 1020.7 |
| 20260507002509 | 68 | 58 | 2.6 | 8.7 | 0.00 | 0.00 | 0.00 | 63 | 1020.7 |
| 20260507002009 | 68 | 96 | 2.6 | 7.8 | 0.00 | 0.00 | 0.00 | 63 | 1020.6 |
| 20260507001520 | 69 | 31 | 1.7 | 10.4 | 0.00 | 0.00 | 0.00 | 62 | 1020.7 |
| 20260507001010 | 69 | 47 | 5.2 | 10.4 | 0.00 | 0.00 | 0.00 | 62 | 1020.7 |
| 20260507000517 | 69 | 58 | 2.6 | 7.0 | 0.00 | 0.00 | 0.00 | 61 | 1020.7 |
| 20260507000024 | 69 | 86 | 3.5 | 7.0 | 0.00 | 0.00 | 0.00 | 60 | 1020.7 |
| 20260506235503 | 69 | 29 | 1.7 | 7.0 | 0.00 | 0.00 | 0.00 | 60 | 1020.6 |
| 20260506235007 | 69 | 354 | 1.7 | 7.0 | 0.00 | 0.00 | 0.00 | 60 | 1020.6 |
| 20260506234507 | 70 | 56 | 0.9 | 4.3 | 0.00 | 0.00 | 0.00 | 59 | 1020.6 |
| 20260506234005 | 71 | 89 | 0.9 | 2.6 | 0.00 | 0.00 | 0.00 | 58 | 1020.6 |
| 20260506233507 | 72 | 90 | 0.9 | 2.6 | 0.00 | 0.00 | 0.00 | 57 | 1020.6 |
| 20260506233014 | 72 | 6 | 0.9 | 2.6 | 0.00 | 0.00 | 0.00 | 57 | 1020.6 |
| 20260506232505 | 71 | 22 | 0.9 | 3.5 | 0.00 | 0.00 | 0.00 | 58 | 1020.7 |
| 20260506232008 | 70 | 153 | 0.9 | 3.5 | 0.00 | 0.00 | 0.00 | 60 | 1020.7 |
| 20260506231522 | 71 | 94 | 1.7 | 3.5 | 0.00 | 0.00 | 0.00 | 58 | 1020.7 |
| 20260506231007 | 71 | 77 | 0.9 | 3.5 | 0.00 | 0.00 | 0.00 | 59 | 1020.8 |
| 20260506230507 | 70 | 222 | 1.7 | 3.5 | 0.00 | 0.00 | 0.00 | 59 | 1020.8 |
| 20260506230026 | 70 | 119 | 1.7 | 5.2 | 0.00 | 0.00 | 0.00 | 60 | 1020.8 |
| 20260506225515 | 69 | 91 | 1.7 | 5.2 | 0.00 | 0.00 | 0.00 | 61 | 1020.9 |
| 20260506225008 | 69 | 82 | 3.5 | 5.2 | 0.00 | 0.00 | 0.00 | 61 | 1020.9 |
| 20260506224506 | 69 | 323 | 1.7 | 4.3 | 0.00 | 0.00 | 0.00 | 60 | 1021.0 |
| 20260506224002 | 68 | 319 | 0.9 | 3.5 | 0.00 | 0.00 | 0.00 | 62 | 1021.1 |
| 20260506223503 | 67 | 223 | 0.9 | 3.5 | 0.00 | 0.00 | 0.00 | 63 | 1021.2 |
| 20260506223015 | 67 | 8 | 0.9 | 3.5 | 0.00 | 0.00 | 0.00 | 62 | 1021.3 |
| 20260506222504 | 68 | 300 | 0.0 | 2.6 | 0.00 | 0.00 | 0.00 | 62 | 1021.3 |
| 20260506222013 | 67 | 120 | 0.9 | 2.6 | 0.00 | 0.00 | 0.00 | 62 | 1021.3 |
| 20260506221516 | 68 | 93 | 1.7 | 2.6 | 0.00 | 0.00 | 0.00 | 62 | 1021.4 |
| 20260506221012 | 68 | 86 | 0.9 | 2.6 | 0.00 | 0.00 | 0.00 | 63 | 1021.4 |
| 20260506220505 | 68 | 232 | 0.0 | 2.6 | 0.00 | 0.00 | 0.00 | 64 | 1021.5 |
| 20260506220028 | 67 | 122 | 0.9 | 3.5 | 0.00 | 0.00 | 0.00 | 64 | 1021.4 |
| 20260506215506 | 67 | 207 | 0.9 | 3.5 | 0.00 | 0.00 | 0.00 | 64 | 1021.4 |
| 20260506215012 | 66 | 264 | 0.9 | 4.3 | 0.00 | 0.00 | 0.00 | 66 | 1021.3 |
| 20260506214525 | 67 | 250 | 1.7 | 4.3 | 0.00 | 0.00 | 0.00 | 66 | 1021.3 |
| 20260506214008 | 66 | 309 | 1.7 | 3.5 | 0.00 | 0.00 | 0.00 | 65 | 1021.3 |
| 20260506213510 | 66 | 83 | 0.9 | 4.3 | 0.00 | 0.00 | 0.00 | 66 | 1021.4 |
| 20260506213008 | 66 | 141 | 2.6 | 4.3 | 0.00 | 0.00 | 0.00 | 66 | 1021.5 |
| 20260506212503 | 66 | 103 | 1.7 | 3.5 | 0.00 | 0.00 | 0.00 | 67 | 1021.6 |
| 20260506212006 | 65 | 89 | 0.9 | 1.7 | 0.00 | 0.00 | 0.00 | 68 | 1021.6 |
| 20260506211511 | 65 | 319 | 0.9 | 3.5 | 0.00 | 0.00 | 0.00 | 68 | 1021.7 |
| 20260506211006 | 65 | 105 | 0.9 | 4.3 | 0.00 | 0.00 | 0.00 | 68 | 1021.8 |
| 20260506210509 | 65 | 65 | 0.9 | 4.3 | 0.00 | 0.00 | 0.00 | 68 | 1021.8 |
| 20260506210018 | 65 | 94 | 1.7 | 4.3 | 0.00 | 0.00 | 0.00 | 68 | 1021.8 |
| 20260506205508 | 66 | 128 | 0.9 | 2.6 | 0.00 | 0.00 | 0.00 | 67 | 1021.8 |
| 20260506205008 | 65 | 101 | 0.0 | 3.5 | 0.00 | 0.00 | 0.00 | 66 | 1021.8 |
| 20260506204528 | 65 | 257 | 1.7 | 3.5 | 0.00 | 0.00 | 0.00 | 67 | 1021.8 |
| 20260506204010 | 65 | 157 | 0.0 | 2.6 | 0.00 | 0.00 | 0.00 | 67 | 1021.8 |
| 20260506203518 | 65 | 220 | 0.0 | 6.1 | 0.00 | 0.00 | 0.00 | 67 | 1021.8 |
| 20260506203029 | 65 | 297 | 0.9 | 6.1 | 0.00 | 0.00 | 0.00 | 68 | 1021.7 |
| 20260506202507 | 65 | 228 | 0.9 | 3.5 | 0.00 | 0.00 | 0.00 | 68 | 1021.7 |
| 20260506202012 | 65 | 54 | 0.9 | 3.5 | 0.00 | 0.00 | 0.00 | 68 | 1021.7 |
| 20260506201532 | 65 | 211 | 0.0 | 3.5 | 0.00 | 0.00 | 0.00 | 69 | 1021.8 |
| 20260506201008 | 64 | 293 | 0.0 | 3.5 | 0.00 | 0.00 | 0.00 | 69 | 1021.8 |
| 20260506200508 | 64 | 262 | 0.0 | 3.5 | 0.00 | 0.00 | 0.00 | 69 | 1021.8 |
| 20260506200013 | 63 | 226 | 0.0 | 3.5 | 0.00 | 0.00 | 0.00 | 70 | 1021.9 |
| 20260506195507 | 63 | 310 | 0.9 | 3.5 | 0.00 | 0.00 | 0.00 | 70 | 1022.1 |
| 20260506195010 | 62 | 311 | 0.9 | 2.6 | 0.00 | 0.00 | 0.00 | 72 | 1022.2 |
| 20260506194518 | 62 | 290 | 0.0 | 3.5 | 0.00 | 0.00 | 0.00 | 72 | 1022.2 |
| 20260506194009 | 62 | 25 | 0.9 | 3.5 | 0.00 | 0.00 | 0.00 | 72 | 1022.2 |
| 20260506193509 | 62 | 340 | 0.0 | 3.5 | 0.00 | 0.00 | 0.00 | 72 | 1022.3 |
| 20260506193023 | 62 | 3 | 1.7 | 3.5 | 0.00 | 0.00 | 0.00 | 72 | 1022.4 |
| 20260506192509 | 62 | 294 | 0.9 | 3.5 | 0.00 | 0.00 | 0.00 | 72 | 1022.3 |
| 20260506192011 | 62 | 309 | 0.9 | 3.5 | 0.00 | 0.00 | 0.00 | 73 | 1022.1 |
| 20260506191527 | 62 | 288 | 0.0 | 3.5 | 0.00 | 0.00 | 0.00 | 73 | 1022.1 |
| 20260506191007 | 62 | 313 | 0.9 | 3.5 | 0.00 | 0.00 | 0.00 | 73 | 1022.1 |
| 20260506190509 | 62 | 300 | 0.9 | 2.6 | 0.00 | 0.00 | 0.00 | 73 | 1022.2 |
| 20260506190028 | 61 | 269 | 0.0 | 2.6 | 0.00 | 0.00 | 0.00 | 74 | 1022.2 |
| 20260506185509 | 61 | 321 | 0.9 | 2.6 | 0.00 | 0.00 | 0.00 | 73 | 1022.2 |
| 20260506185005 | 61 | 97 | 1.7 | 2.6 | 0.00 | 0.00 | 0.00 | 73 | 1022.0 |
| 20260506184516 | 61 | 91 | 0.9 | 2.6 | 0.00 | 0.00 | 0.00 | 75 | 1022.0 |
| 20260506184008 | 61 | 298 | 0.9 | 2.6 | 0.00 | 0.00 | 0.00 | 75 | 1022.1 |
| 20260506183508 | 61 | 340 | 1.7 | 2.6 | 0.00 | 0.00 | 0.00 | 75 | 1022.0 |
| 20260506183018 | 61 | 39 | 0.9 | 2.6 | 0.00 | 0.00 | 0.00 | 74 | 1022.1 |
| 20260506182508 | 60 | 245 | 0.0 | 0.0 | 0.00 | 0.00 | 0.00 | 76 | 1022.2 |
| 20260506182010 | 60 | 49 | 0.0 | 3.5 | 0.00 | 0.00 | 0.00 | 76 | 1022.2 |
| 20260506181526 | 60 | 341 | 0.9 | 5.2 | 0.00 | 0.00 | 0.00 | 77 | 1022.1 |
| 20260506181008 | 60 | 359 | 1.7 | 5.2 | 0.00 | 0.00 | 0.00 | 77 | 1022.1 |
| 20260506180510 | 59 | 34 | 0.9 | 3.5 | 0.00 | 0.00 | 0.00 | 77 | 1022.2 |
| 20260506180028 | 60 | 359 | 0.9 | 3.5 | 0.00 | 0.00 | 0.00 | 76 | 1022.2 |
| 20260506175509 | 59 | 311 | 0.0 | 0.0 | 0.00 | 0.00 | 0.00 | 76 | 1022.2 |
| 20260506175010 | 59 | 67 | 0.0 | 0.0 | 0.00 | 0.00 | 0.00 | 77 | 1022.1 |
| 20260506174528 | 59 | 336 | 0.0 | 0.0 | 0.00 | 0.00 | 0.00 | 76 | 1022.2 |
| 20260506174013 | 59 | 349 | 0.0 | 0.0 | 0.00 | 0.00 | 0.00 | 76 | 1022.1 |
| 20260506173510 | 59 | 222 | 0.0 | 0.0 | 0.00 | 0.00 | 0.00 | 77 | 1022.0 |
| 20260506173018 | 59 | 235 | 0.0 | 0.0 | 0.00 | 0.00 | 0.00 | 77 | 1021.9 |
| 20260506172506 | 59 | 229 | 0.0 | 1.7 | 0.00 | 0.00 | 0.00 | 77 | 1021.9 |
| 20260506172008 | 59 | 242 | 0.0 | 2.6 | 0.00 | 0.00 | 0.00 | 77 | 1021.8 |
| 20260506171534 | 59 | 27 | 0.9 | 2.6 | 0.00 | 0.00 | 0.00 | 77 | 1021.7 |
| 20260506171010 | 59 | 259 | 0.0 | 2.6 | 0.00 | 0.00 | 0.00 | 77 | 1021.8 |
| 20260506170510 | 59 | 328 | 1.7 | 4.3 | 0.00 | 0.00 | 0.00 | 76 | 1021.9 |
| 20260506170025 | 59 | 308 | 1.7 | 4.3 | 0.00 | 0.00 | 0.00 | 77 | 1021.9 |
| 20260506165508 | 58 | 30 | 0.0 | 2.6 | 0.00 | 0.00 | 0.00 | 77 | 1021.9 |
| 20260506165010 | 58 | 345 | 0.0 | 3.5 | 0.00 | 0.00 | 0.00 | 77 | 1021.8 |
| 20260506164526 | 58 | 34 | 1.7 | 3.5 | 0.00 | 0.00 | 0.00 | 77 | 1021.7 |
| 20260506164013 | 59 | 60 | 0.0 | 3.5 | 0.00 | 0.00 | 0.00 | 77 | 1021.7 |
| 20260506163513 | 59 | 57 | 1.7 | 3.5 | 0.00 | 0.00 | 0.00 | 77 | 1021.9 |
| 20260506163030 | 58 | 103 | 0.0 | 3.5 | 0.00 | 0.00 | 0.00 | 78 | 1021.7 |
| 20260506162508 | 58 | 59 | 2.6 | 3.5 | 0.00 | 0.00 | 0.00 | 77 | 1021.7 |
| 20260506162012 | 58 | 56 | 1.7 | 3.5 | 0.00 | 0.00 | 0.00 | 77 | 1021.6 |
| 20260506161537 | 58 | 82 | 0.0 | 2.6 | 0.00 | 0.00 | 0.00 | 78 | 1021.6 |
| 20260506161007 | 58 | 79 | 0.9 | 2.6 | 0.00 | 0.00 | 0.00 | 78 | 1021.7 |
| 20260506160513 | 57 | 125 | 0.0 | 3.5 | 0.00 | 0.00 | 0.00 | 78 | 1021.5 |
| 20260506160034 | 57 | 124 | 0.0 | 3.5 | 0.00 | 0.00 | 0.00 | 78 | 1021.4 |
| 20260506155510 | 57 | 72 | 0.0 | 4.3 | 0.00 | 0.00 | 0.00 | 78 | 1021.4 |
| 20260506155011 | 57 | 258 | 0.9 | 4.3 | 0.00 | 0.00 | 0.00 | 79 | 1021.1 |
| 20260506154530 | 56 | 302 | 0.0 | 2.6 | 0.00 | 0.00 | 0.00 | 80 | 1021.1 |
| 20260506154012 | 56 | 250 | 0.0 | 0.0 | 0.00 | 0.00 | 0.00 | 80 | 1021.1 |
| 20260506153514 | 56 | 59 | 0.0 | 2.6 | 0.00 | 0.00 | 0.00 | 80 | 1021.7 |
| 20260506153024 | 56 | 96 | 0.0 | 2.6 | 0.00 | 0.00 | 0.00 | 80 | 1021.9 |
| 20260506152508 | 56 | 49 | 0.9 | 4.3 | 0.00 | 0.00 | 0.00 | 80 | 1021.9 |
| 20260506152015 | 56 | 54 | 0.9 | 4.3 | 0.00 | 0.00 | 0.00 | 80 | 1022.0 |
| 20260506151534 | 56 | 103 | 1.7 | 5.2 | 0.00 | 0.00 | 0.00 | 80 | 1022.0 |
| 20260506151015 | 56 | 84 | 1.7 | 5.2 | 0.00 | 0.00 | 0.00 | 80 | 1021.9 |
| 20260506150516 | 56 | 101 | 1.7 | 5.2 | 0.00 | 0.00 | 0.00 | 80 | 1022.0 |
| 20260506150032 | 56 | 86 | 2.6 | 5.2 | 0.00 | 0.00 | 0.00 | 80 | 1021.9 |
| 20260506145504 | 56 | 99 | 0.9 | 3.5 | 0.00 | 0.00 | 0.00 | 80 | 1021.9 |
| 20260506145005 | 56 | 55 | 0.0 | 3.5 | 0.00 | 0.00 | 0.00 | 80 | 1021.6 |
| 20260506144506 | 56 | 46 | 0.9 | 5.2 | 0.00 | 0.00 | 0.00 | 80 | 1021.8 |
| 20260506144009 | 57 | 57 | 1.7 | 5.2 | 0.00 | 0.00 | 0.00 | 80 | 1021.7 |
| 20260506143505 | 57 | 97 | 2.6 | 5.2 | 0.00 | 0.00 | 0.00 | 80 | 1021.5 |
| 20260506143030 | 57 | 75 | 0.9 | 2.6 | 0.00 | 0.00 | 0.00 | 81 | 1021.4 |
| 20260506142503 | 57 | 96 | 1.7 | 2.6 | 0.00 | 0.00 | 0.00 | 81 | 1021.2 |
| 20260506142007 | 57 | 89 | 1.7 | 2.6 | 0.00 | 0.00 | 0.00 | 81 | 1021.1 |
| 20260506141510 | 57 | 115 | 0.0 | 1.7 | 0.00 | 0.00 | 0.00 | 81 | 1020.9 |
| 20260506141007 | 57 | 54 | 0.0 | 1.7 | 0.00 | 0.00 | 0.00 | 81 | 1021.0 |
| 20260506140505 | 57 | 102 | 0.0 | 1.7 | 0.00 | 0.00 | 0.00 | 81 | 1021.1 |
| 20260506140015 | 57 | 90 | 0.0 | 0.0 | 0.00 | 0.00 | 0.00 | 81 | 1021.1 |
| 20260506135507 | 57 | 78 | 0.0 | 0.0 | 0.00 | 0.00 | 0.00 | 81 | 1021.1 |
| 20260506135007 | 56 | 96 | 0.0 | 0.0 | 0.00 | 0.00 | 0.00 | 81 | 1020.9 |
| 20260506134520 | 56 | 96 | 0.0 | 0.0 | 0.00 | 0.00 | 0.00 | 81 | 1020.9 |
| 20260506134003 | 56 | 95 | 0.0 | 0.0 | 0.00 | 0.00 | 0.00 | 81 | 1020.8 |
| 20260506133503 | 56 | 95 | 0.0 | 0.0 | 0.00 | 0.00 | 0.00 | 81 | 1020.7 |
| 20260506133006 | 56 | 146 | 0.0 | 0.0 | 0.00 | 0.00 | 0.00 | 81 | 1020.7 |
| 20260506132504 | 56 | 146 | 0.0 | 0.0 | 0.00 | 0.00 | 0.00 | 81 | 1020.7 |
| 20260506132008 | 56 | 147 | 0.0 | 0.0 | 0.00 | 0.00 | 0.00 | 81 | 1020.6 |
| 20260506131514 | 56 | 146 | 0.0 | 0.0 | 0.00 | 0.00 | 0.00 | 81 | 1020.5 |
| 20260506131006 | 56 | 146 | 0.0 | 0.0 | 0.00 | 0.00 | 0.00 | 81 | 1020.5 |
| 20260506130505 | 56 | 146 | 0.0 | 0.0 | 0.00 | 0.00 | 0.00 | 81 | 1020.5 |
| 20260506130012 | 56 | 146 | 0.0 | 0.0 | 0.00 | 0.00 | 0.00 | 81 | 1020.5 |
| 20260506125504 | 56 | 146 | 0.0 | 0.0 | 0.00 | 0.00 | 0.00 | 81 | 1020.4 |
| 20260506125008 | 56 | 146 | 0.0 | 0.0 | 0.00 | 0.00 | 0.00 | 81 | 1020.3 |
| 20260506124516 | 56 | 148 | 0.0 | 0.0 | 0.00 | 0.00 | 0.00 | 81 | 1020.3 |
| 20260506124008 | 56 | 148 | 0.0 | 1.7 | 0.00 | 0.00 | 0.00 | 81 | 1020.3 |
| 20260506123507 | 56 | 105 | 0.0 | 1.7 | 0.00 | 0.00 | 0.00 | 81 | 1020.3 |
| 20260506123024 | 56 | 94 | 0.9 | 3.5 | 0.00 | 0.00 | 0.00 | 81 | 1020.4 |
| 20260506122508 | 56 | 99 | 0.9 | 3.5 | 0.00 | 0.00 | 0.00 | 81 | 1020.4 |
| 20260506122006 | 56 | 66 | 0.0 | 3.5 | 0.00 | 0.00 | 0.00 | 81 | 1020.4 |
| 20260506121507 | 56 | 103 | 0.0 | 2.6 | 0.00 | 0.00 | 0.00 | 81 | 1020.4 |
| 20260506121003 | 56 | 94 | 0.0 | 2.6 | 0.00 | 0.00 | 0.00 | 80 | 1020.4 |
| 20260506120505 | 56 | 89 | 0.0 | 2.6 | 0.00 | 0.00 | 0.00 | 80 | 1020.3 |
| 20260506120011 | 56 | 77 | 0.9 | 3.5 | 0.00 | 0.00 | 0.00 | 80 | 1020.4 |
| 20260506115508 | 56 | 95 | 0.9 | 3.5 | 0.00 | 0.00 | 0.00 | 80 | 1020.2 |
| 20260506115007 | 56 | 80 | 0.9 | 3.5 | 0.00 | 0.00 | 0.00 | 80 | 1020.2 |
| 20260506114520 | 56 | 96 | 0.9 | 4.3 | 0.00 | 0.00 | 0.00 | 80 | 1020.1 |
| 20260506114008 | 56 | 115 | 0.9 | 4.3 | 0.00 | 0.00 | 0.00 | 80 | 1020.0 |
| 20260506113509 | 57 | 76 | 0.9 | 3.5 | 0.00 | 0.00 | 0.00 | 80 | 1020.0 |
| 20260506113020 | 57 | 55 | 0.9 | 5.2 | 0.00 | 0.00 | 0.00 | 80 | 1020.0 |
| 20260506112508 | 57 | 143 | 0.9 | 5.2 | 0.00 | 0.00 | 0.00 | 79 | 1020.0 |
| 20260506112011 | 57 | 73 | 1.7 | 4.3 | 0.00 | 0.00 | 0.00 | 79 | 1020.0 |
| 20260506111522 | 57 | 91 | 2.6 | 4.3 | 0.00 | 0.00 | 0.00 | 79 | 1019.9 |
| 20260506111010 | 57 | 51 | 1.7 | 3.5 | 0.00 | 0.00 | 0.00 | 79 | 1019.8 |
| 20260506110515 | 57 | 86 | 0.0 | 2.6 | 0.00 | 0.00 | 0.00 | 79 | 1019.7 |
| 20260506110007 | 57 | 91 | 0.0 | 3.5 | 0.00 | 0.00 | 0.00 | 79 | 1019.6 |
| 20260506105504 | 57 | 58 | 0.9 | 4.3 | 0.00 | 0.00 | 0.00 | 79 | 1019.6 |
| 20260506105007 | 57 | 86 | 1.7 | 4.3 | 0.00 | 0.00 | 0.00 | 79 | 1019.5 |
| 20260506104513 | 57 | 96 | 0.9 | 1.7 | 0.00 | 0.00 | 0.00 | 79 | 1019.4 |
| 20260506104007 | 57 | 112 | 0.9 | 2.6 | 0.00 | 0.00 | 0.00 | 79 | 1019.3 |
| 20260506103507 | 57 | 44 | 0.9 | 2.6 | 0.00 | 0.00 | 0.00 | 79 | 1019.2 |
| 20260506103017 | 57 | 55 | 0.0 | 2.6 | 0.00 | 0.00 | 0.00 | 79 | 1019.2 |
| 20260506102507 | 57 | 81 | 0.0 | 2.6 | 0.00 | 0.00 | 0.00 | 79 | 1019.1 |
| 20260506102008 | 57 | 45 | 0.0 | 2.6 | 0.00 | 0.00 | 0.00 | 79 | 1019.0 |
| 20260506101535 | 57 | 92 | 0.0 | 2.6 | 0.00 | 0.00 | 0.00 | 78 | 1018.9 |
| 20260506101015 | 57 | 100 | 1.7 | 2.6 | 0.00 | 0.00 | 0.00 | 78 | 1018.9 |
| 20260506100511 | 57 | 73 | 0.0 | 2.6 | 0.00 | 0.00 | 0.00 | 78 | 1018.9 |
| 20260506100023 | 57 | 94 | 0.9 | 3.5 | 0.00 | 0.00 | 0.00 | 78 | 1018.9 |